Radiation Dose at Monitoring Post of Fukushima Daini Nuclear Power Station
Date,Time,MP-1(microSv/h),MP-2(microSv/h),MP-3(microSv/h),MP-4(microSv/h),MP-5(microSv/h),MP-6(microSv/h),MP-7(microSv/h),Wind Direction,Wind Velocity(m/s),Rain
2021/11/27,00:00,0.160,0.148,0.226,0.220,0.228,0.126,0.082,north-northwest,4.7,No
2021/11/27,00:10,0.160,0.147,0.225,0.220,0.228,0.124,0.083,north,5.4,No
2021/11/27,00:20,0.159,0.145,0.224,0.220,0.226,0.124,0.081,north,4.5,No
2021/11/27,00:30,0.159,0.146,0.223,0.218,0.226,0.124,0.080,north-northwest,6.1,No
2021/11/27,00:40,0.157,0.146,0.223,0.217,0.226,0.123,0.079,north-northwest,5.2,Yes
2021/11/27,00:50,0.158,0.145,0.223,0.217,0.225,0.123,0.080,north-northwest,5.4,No
2021/11/27,01:00,0.157,0.145,0.223,0.218,0.224,0.123,0.079,north-northwest,4.7,No
2021/11/27,01:10,0.158,0.143,0.222,0.218,0.225,0.123,0.079,north-northwest,5.9,No
2021/11/27,01:20,0.157,0.144,0.222,0.217,0.226,0.122,0.079,north-northwest,5.6,No
2021/11/27,01:30,0.157,0.143,0.222,0.216,0.224,0.122,0.079,north-northwest,5.7,No
2021/11/27,01:40,0.157,0.144,0.222,0.218,0.223,0.121,0.079,northwest,6.9,No
2021/11/27,01:50,0.156,0.143,0.221,0.216,0.224,0.123,0.078,northwest,6.7,No
2021/11/27,02:00,0.156,0.144,0.222,0.218,0.225,0.122,0.078,north-northwest,6.2,No
2021/11/27,02:10,0.155,0.143,0.220,0.217,0.224,0.122,0.078,north-northwest,6.2,No
2021/11/27,02:20,0.156,0.143,0.221,0.217,0.223,0.121,0.078,northwest,5.9,No
2021/11/27,02:30,0.157,0.143,0.221,0.217,0.224,0.121,0.078,northwest,4.6,No
2021/11/27,02:40,0.156,0.144,0.223,0.217,0.224,0.121,0.079,northwest,3.4,No
2021/11/27,02:50,0.156,0.142,0.222,0.217,0.222,0.122,0.079,north,2.3,No
2021/11/27,03:00,0.157,0.143,0.221,0.218,0.224,0.122,0.078,north,1.8,No
2021/11/27,03:10,0.156,0.144,0.221,0.217,0.224,0.122,0.079,-,CALM,No
2021/11/27,03:20,0.155,0.143,0.223,0.217,0.224,0.121,0.078,north-northwest,1.4,No
2021/11/27,03:30,0.156,0.143,0.222,0.217,0.224,0.122,0.078,north,2.6,No
2021/11/27,03:40,0.156,0.143,0.222,0.217,0.223,0.122,0.078,northwest,2.9,No
2021/11/27,03:50,0.156,0.143,0.222,0.217,0.223,0.122,0.078,northwest,4.4,No
2021/11/27,04:00,0.156,0.143,0.221,0.217,0.224,0.121,0.078,northwest,4.5,No
2021/11/27,04:10,0.156,0.143,0.222,0.216,0.224,0.122,0.078,northwest,4.3,No
2021/11/27,04:20,0.157,0.144,0.223,0.217,0.222,0.121,0.078,northwest,4.2,No
2021/11/27,04:30,0.156,0.144,0.222,0.217,0.225,0.122,0.079,northwest,5.7,No
2021/11/27,04:40,0.156,0.144,0.221,0.217,0.224,0.123,0.078,west-northwest,6.0,No
2021/11/27,04:50,0.157,0.144,0.222,0.217,0.224,0.122,0.078,west-northwest,8.1,No
2021/11/27,05:00,0.156,0.144,0.221,0.217,0.224,0.121,0.078,west-northwest,6.6,No
2021/11/27,05:10,0.156,0.144,0.222,0.216,0.224,0.122,0.078,west-northwest,4.6,No
2021/11/27,05:20,0.156,0.144,0.222,0.217,0.224,0.122,0.077,west-northwest,2.7,No
2021/11/27,05:30,0.156,0.144,0.222,0.217,0.223,0.121,0.078,northwest,3.6,No
2021/11/27,05:40,0.157,0.144,0.222,0.218,0.224,0.122,0.078,west-northwest,5.5,No
2021/11/27,05:50,0.156,0.144,0.222,0.218,0.223,0.122,0.078,west-northwest,5.6,No
2021/11/27,06:00,0.157,0.144,0.221,0.218,0.223,0.122,0.078,west-northwest,6.3,No
2021/11/27,06:10,0.156,0.143,0.222,0.217,0.224,0.122,0.078,northwest,4.6,No
2021/11/27,06:20,0.157,0.143,0.222,0.217,0.224,0.122,0.078,northwest,4.0,No
2021/11/27,06:30,0.156,0.143,0.221,0.217,0.225,0.122,0.078,west-northwest,5.9,No
2021/11/27,06:40,0.156,0.143,0.223,0.218,0.224,0.121,0.078,west-northwest,5.4,No
2021/11/27,06:50,0.156,0.143,0.222,0.217,0.224,0.121,0.077,west-northwest,4.6,No
2021/11/27,07:00,0.157,0.144,0.222,0.217,0.224,0.121,0.077,west-northwest,2.3,No
2021/11/27,07:10,0.157,0.144,0.223,0.218,0.223,0.121,0.077,west-northwest,3.2,No
2021/11/27,07:20,0.156,0.144,0.222,0.218,0.225,0.122,0.079,north-northwest,6.6,No
2021/11/27,07:30,0.155,0.143,0.221,0.217,0.225,0.122,0.077,north-northwest,5.0,No
2021/11/27,07:40,0.157,0.144,0.223,0.217,0.225,0.121,0.078,north-northwest,5.8,No
2021/11/27,07:50,0.157,0.144,0.222,0.217,0.224,0.122,0.078,north-northwest,4.5,No
2021/11/27,08:00,0.158,0.145,0.222,0.216,0.224,0.122,0.077,northwest,3.3,No
2021/11/27,08:10,0.157,0.144,0.223,0.216,0.224,0.121,0.078,north-northwest,4.6,No
2021/11/27,08:20,0.158,0.144,0.223,0.218,0.223,0.122,0.078,north,5.6,No
2021/11/27,08:30,0.157,0.143,0.223,0.216,0.223,0.122,0.078,north-northwest,3.1,No
2021/11/27,08:40,0.157,0.143,0.223,0.217,0.224,0.122,0.078,northwest,3.7,No
2021/11/27,08:50,0.157,0.144,0.221,0.218,0.223,0.121,0.078,north-northwest,2.0,No
2021/11/27,09:00,0.157,0.143,0.223,0.217,0.225,0.121,0.079,north-northwest,2.6,No
2021/11/27,09:10,0.158,0.144,0.224,0.217,0.223,0.122,0.078,north,3.2,No
2021/11/27,09:20,0.157,0.143,0.222,0.218,0.223,0.122,0.077,north,4.3,No
2021/11/27,09:30,0.157,0.144,0.221,0.216,0.224,0.121,0.078,north,3.0,No
2021/11/27,09:40,0.157,0.144,0.222,0.217,0.224,0.122,0.078,north,3.3,No
2021/11/27,09:50,0.157,0.144,0.223,0.218,0.223,0.122,0.079,north-northwest,2.8,No
2021/11/27,10:00,0.157,0.144,0.223,0.218,0.224,0.123,0.078,north,2.2,No
2021/11/27,10:10,0.157,0.144,0.222,0.219,0.224,0.122,0.079,north-northeast,2.9,No
2021/11/27,10:20,0.157,0.144,0.222,0.219,0.225,0.122,0.078,north-northeast,3.6,No
2021/11/27,10:30,0.156,0.144,0.221,0.218,0.224,0.122,0.078,north-northwest,4.1,Yes
2021/11/27,10:40,0.157,0.145,0.222,0.217,0.225,0.122,0.078,north-northwest,2.8,Yes
2021/11/27,10:50,0.157,0.144,0.223,0.218,0.225,0.123,0.079,northwest,2.4,Yes
2021/11/27,11:00,0.156,0.144,0.223,0.218,0.225,0.123,0.079,west-northwest,2.7,Yes
2021/11/27,11:10,0.158,0.144,0.223,0.218,0.225,0.123,0.078,west,3.0,No
2021/11/27,11:20,0.158,0.144,0.221,0.219,0.224,0.123,0.079,northwest,1.5,No
2021/11/27,11:30,0.156,0.144,0.223,0.218,0.226,0.122,0.078,west,4.0,No
2021/11/27,11:40,0.157,0.144,0.222,0.218,0.224,0.122,0.078,west-northwest,6.7,No
2021/11/27,11:50,0.156,0.142,0.222,0.218,0.225,0.123,0.078,west,6.7,No
2021/11/27,12:00,0.157,0.143,0.223,0.218,0.225,0.122,0.078,west-northwest,6.7,No
2021/11/27,12:10,0.156,0.143,0.222,0.216,0.224,0.122,0.078,west-northwest,6.1,No
2021/11/27,12:20,0.156,0.143,0.222,0.218,0.226,0.123,0.078,northwest,7.3,No
2021/11/27,12:30,0.157,0.144,0.223,0.217,0.223,0.122,0.078,west-northwest,7.0,No
2021/11/27,12:40,0.156,0.144,0.221,0.218,0.225,0.122,0.077,west-northwest,4.8,No
2021/11/27,12:50,0.157,0.143,0.223,0.216,0.223,0.123,0.078,northwest,6.5,No
2021/11/27,13:00,0.156,0.144,0.221,0.218,0.226,0.122,0.077,northwest,6.6,No
2021/11/27,13:10,0.157,0.144,0.224,0.217,0.226,0.123,0.077,northwest,5.5,No
2021/11/27,13:20,0.157,0.143,0.223,0.217,0.225,0.123,0.078,west-northwest,7.0,No
2021/11/27,13:30,0.157,0.144,0.222,0.217,0.225,0.123,0.078,northwest,5.4,No
2021/11/27,13:40,0.158,0.144,0.224,0.217,0.224,0.123,0.078,west-northwest,6.2,No
2021/11/27,13:50,0.156,0.144,0.223,0.218,0.225,0.123,0.078,northwest,4.1,No
2021/11/27,14:00,0.157,0.145,0.223,0.217,0.222,0.123,0.078,west-northwest,5.6,No
2021/11/27,14:10,0.157,0.144,0.224,0.219,0.225,0.122,0.078,west-northwest,6.5,No
2021/11/27,14:20,0.158,0.144,0.223,0.219,0.223,0.123,0.077,west-northwest,6.3,No
2021/11/27,14:30,0.158,0.145,0.224,0.218,0.226,0.122,0.078,west,6.5,No
2021/11/27,14:40,0.158,0.144,0.224,0.219,0.226,0.123,0.078,west-northwest,7.6,No
2021/11/27,14:50,0.157,0.145,0.225,0.218,0.225,0.124,0.078,west,7.6,No
2021/11/27,15:00,0.159,0.144,0.223,0.219,0.226,0.123,0.079,west,5.8,No
2021/11/27,15:10,0.158,0.145,0.222,0.218,0.225,0.123,0.078,west,7.6,No
2021/11/27,15:20,0.157,0.144,0.224,0.219,0.226,0.122,0.078,west,8.7,No
2021/11/27,15:30,0.157,0.144,0.224,0.218,0.225,0.123,0.078,west-northwest,6.9,No
2021/11/27,15:40,0.158,0.144,0.224,0.220,0.226,0.123,0.078,west-northwest,7.3,No
2021/11/27,15:50,0.158,0.144,0.224,0.220,0.226,0.124,0.079,west-northwest,7.5,No
2021/11/27,16:00,0.158,0.144,0.225,0.218,0.225,0.124,0.078,west-northwest,7.6,No
2021/11/27,16:10,0.158,0.145,0.224,0.219,0.225,0.122,0.078,west-northwest,6.3,No
2021/11/27,16:20,0.158,0.144,0.224,0.220,0.224,0.123,0.078,west-northwest,6.7,No
2021/11/27,16:30,0.157,0.145,0.225,0.219,0.224,0.123,0.079,northwest,6.9,No
2021/11/27,16:40,0.158,0.144,0.224,0.219,0.224,0.123,0.078,west-northwest,8.2,No
2021/11/27,16:50,0.158,0.145,0.224,0.219,0.224,0.123,0.078,northwest,6.5,No
2021/11/27,17:00,0.158,0.144,0.224,0.219,0.224,0.124,0.078,northwest,5.9,No
2021/11/27,17:10,0.157,0.144,0.225,0.220,0.224,0.123,0.079,northwest,5.7,No
2021/11/27,17:20,0.157,0.145,0.223,0.220,0.226,0.123,0.078,west-northwest,5.9,No
2021/11/27,17:30,0.156,0.145,0.224,0.219,0.224,0.123,0.078,west-northwest,6.6,No
2021/11/27,17:40,0.158,0.145,0.224,0.219,0.225,0.123,0.079,northwest,5.2,No
2021/11/27,17:50,0.157,0.144,0.224,0.220,0.224,0.123,0.079,northwest,4.7,No
2021/11/27,18:00,0.157,0.145,0.224,0.218,0.225,0.123,0.078,northwest,4.5,No
2021/11/27,18:10,0.157,0.145,0.224,0.219,0.225,0.123,0.078,northwest,3.9,No
2021/11/27,18:20,0.158,0.145,0.224,0.220,0.224,0.122,0.079,northwest,4.3,No
2021/11/27,18:30,0.157,0.145,0.224,0.218,0.225,0.123,0.078,west-northwest,7.4,No
2021/11/27,18:40,0.157,0.145,0.222,0.218,0.225,0.123,0.078,west-northwest,8.7,No
2021/11/27,18:50,0.158,0.145,0.224,0.219,0.225,0.123,0.078,west-northwest,6.0,No
2021/11/27,19:00,0.157,0.144,0.224,0.219,0.224,0.122,0.079,west-northwest,6.3,No
2021/11/27,19:10,0.157,0.144,0.223,0.219,0.225,0.123,0.078,west-northwest,6.6,No
2021/11/27,19:20,0.157,0.144,0.225,0.219,0.224,0.123,0.078,west-northwest,6.4,No
2021/11/27,19:30,0.157,0.145,0.224,0.218,0.225,0.124,0.078,west-northwest,6.1,No
2021/11/27,19:40,0.158,0.144,0.225,0.220,0.225,0.123,0.079,west-northwest,6.8,No
2021/11/27,19:50,0.158,0.144,0.223,0.219,0.225,0.123,0.078,west-northwest,6.6,No
2021/11/27,20:00,0.157,0.145,0.225,0.219,0.225,0.123,0.078,west-northwest,6.8,No
2021/11/27,20:10,0.158,0.145,0.223,0.218,0.225,0.123,0.078,northwest,7.1,No
2021/11/27,20:20,0.158,0.145,0.224,0.219,0.224,0.123,0.078,west-northwest,7.4,No
2021/11/27,20:30,0.158,0.145,0.224,0.219,0.225,0.123,0.078,west-northwest,8.2,No
2021/11/27,20:40,0.157,0.145,0.224,0.220,0.225,0.123,0.077,west-northwest,9.0,No
2021/11/27,20:50,0.158,0.145,0.225,0.219,0.226,0.123,0.078,northwest,8.5,No
2021/11/27,21:00,0.157,0.145,0.224,0.218,0.224,0.123,0.079,northwest,7.6,No
2021/11/27,21:10,0.157,0.145,0.224,0.218,0.224,0.123,0.078,northwest,6.6,No
2021/11/27,21:20,0.158,0.145,0.224,0.219,0.226,0.123,0.078,northwest,6.8,No
2021/11/27,21:30,0.157,0.144,0.223,0.218,0.225,0.123,0.079,west-northwest,6.6,No
2021/11/27,21:40,0.158,0.145,0.224,0.219,0.224,0.123,0.079,west-northwest,5.3,No
2021/11/27,21:50,0.158,0.144,0.224,0.218,0.224,0.123,0.078,west-northwest,5.7,No
2021/11/27,22:00,0.158,0.145,0.224,0.219,0.225,0.123,0.078,west-northwest,6.0,No
2021/11/27,22:10,0.157,0.144,0.224,0.220,0.225,0.123,0.079,west-northwest,6.7,No
2021/11/27,22:20,0.157,0.145,0.224,0.219,0.224,0.123,0.078,west-northwest,8.7,No
2021/11/27,22:30,0.158,0.145,0.224,0.219,0.225,0.124,0.078,west-northwest,9.3,No
2021/11/27,22:40,0.157,0.145,0.225,0.219,0.225,0.123,0.079,northwest,9.0,No
2021/11/27,22:50,0.157,0.145,0.225,0.219,0.225,0.123,0.078,northwest,8.1,No
2021/11/27,23:00,0.157,0.144,0.225,0.219,0.224,0.122,0.078,northwest,7.7,No
2021/11/27,23:10,0.158,0.144,0.224,0.219,0.224,0.123,0.078,west-northwest,7.7,No
2021/11/27,23:20,0.156,0.145,0.223,0.219,0.224,0.123,0.078,northwest,8.5,No
2021/11/27,23:30,0.158,0.144,0.225,0.219,0.225,0.122,0.078,northwest,8.5,No
2021/11/27,23:40,0.158,0.144,0.225,0.219,0.224,0.123,0.079,northwest,8.5,No
2021/11/27,23:50,0.158,0.145,0.224,0.218,0.224,0.123,0.078,northwest,9.3,No
